Погода в Бенгази

Ливия     32°05′39″N   20°09′49″E
темп.,
°C
ветер,
м/с
пор.,
м/с
влажн.,
%
обл.,
%
осадки,
мм/ч
давл.,
гПа
погр.,
м
20 января, ср
ср2023:00+10с47670 0.0 1029206
02:00+10ссв45689 0.0 1029162
05:00+9св237215 0.0 103054
08:00+8в127533 0.0 103032
11:00+12св245583 0.0 1032982
14:00+14ссв334853 0.0 10301293
17:00+14с435219 0.0 1030979
20:00+11ссв346328 0.0 1031126
21 января, чт
чт2123:00+10всв346971 0.0 103171
02:00+9вюв337251 0.0 103056
05:00+9вюв34730 0.0 103046
08:00+8юв457325 0.0 103080
11:00+12ююв565626 0.0 1031630
14:00+14ю554313 0.0 10281194
17:00+14ю34420 0.0 10281272
20:00+11ю12580 0.0 102842
22 января, пт
пт2223:00+11юв335599 0.0 102837
02:00+10ююв345699 0.0 102757
05:00+9ююв4558100 0.0 102681
08:00+9ююв5760100 0.0 1027124
11:00+12ююв7952100 0.0 1027591
14:00+14ю674467 0.0 10251021
17:00+14ююз45450 0.0 10241089
20:00+11ю23560 0.0 102450
23 января, сб
сб2323:00+10юв57550 0.0 1024112
02:00+10юв58550 0.0 1023123
05:00+9ююв69570 0.0 1022141
08:00+8ююв610590 0.0 1022158
11:00+12ююв9124952 0.0 1022546
14:00+14ю9114173 0.0 1020786
17:00+14ю71047100 0.0 1018527
20:00+12ююв5851100 0.0 1019129
24 января, вс
вс2423:00+12ююв6947100 0.0 1019151
02:00+11ююв694999 0.0 1019128
05:00+10ююв685232 0.0 1018103
08:00+9юв685416 0.0 1019102
11:00+13ююв78470 0.0 1020281
14:00+16ю67450 0.0 1018523
17:00+16ююз57500 0.0 1017511
20:00+13ю45660 0.0 101781